Weather in Bavtugay

Russia / Republic of Dagestan     43°09′57″N   46°50′02″E
temp.,
°C
wind,
m/s
gust,
m/s
humid.,
%
clouds,
%
prec.,
mm/h
press.,
hPa
HPBL,
m
10 august, wed
wed1000:00+22sse33450 0.0 101319
03:00+20se22500 0.0 101217
06:00+22ese36460 0.0 1013160
09:00+30e78270 0.0 10111076
12:00+34ese910200 0.0 10092147
15:00+33e1011230 0.0 10081646
18:00+30ese912310 0.0 1007946
21:00+24ese713532 0.0 1007350
11 august, thu
thu1100:00+23ese47560 0.0 1007175
03:00+22se23530 0.0 100635
06:00+24ese312490 0.0 1007457
09:00+34ese1011230 0.0 10061450
12:00+36ese1212220 0.0 10051932
15:00+36ese1213260 0.0 10051456
18:00+31ese1012453 0.0 1005767
21:00+26ese610620 0.2 1007305
12 august, fri
fri1200:00+26ese610600 0.0 1008298
03:00+24ese49630 0.0 1008210
06:00+25ese37600 0.0 1009229
09:00+33ese45300 0.1 10101211
12:00+37ese109200 0.1 10091935
15:00+35ese1213244 0.1 10091525
18:00+30e914346 0.0 1010899
21:00+25ese6145713 0.1 1011420
13 august, sat
sat1300:00+23e597117 0.3 1011194
03:00+21ene01800 1.3 101111
06:00+22sse00770 0.0 101241
09:00+32e47260 0.0 10111148
12:00+37ese910170 0.1 10092005
15:00+35ese1213212 0.2 10091908
18:00+31ese914296 0.1 10091147
21:00+26ese6134429 0.2 1010419
14 august, sun
sun1400:00+24ese5106532 0.3 1009230
03:00+23ese37665 0.3 1009119
06:00+24ese13551 0.0 100991
09:00+34ese79200 0.0 10081210
12:00+38e1010150 0.0 10061899
15:00+36ese1111180 0.0 10061462
18:00+32ese1015250 0.0 1007958
21:00+28ese816370 0.0 1007519